Location: Godiavel Galaoual
(15.2485°N, 12.6604°W)
Time: 04:08:32
(UTC+00:00)

Envisat - Pass Details

Date: 11 December 2021
Orbit: 764 x 766 km, 98.2° (Epoch: 18 January)

Event Time Altitude Azimuth Distance (km) Brightness Sun altitude
Rises 04:40:46 0° 35° (NE) 3,221 6.4 -33.9°
Reaches altitude 10° 04:43:38 10° 52° (NE) 2,294 5.8 -33.2°
Maximum altitude 04:47:20 21° 99° (E) 1,684 5.4 -32.4°
Drops below altitude 10° 04:51:01 10° 146° (SSE) 2,292 6.0 -31.5°
Sets 04:53:52 0° 163° (SSE) 3,216 6.7 -30.9°
